Location: Vienna
(48.2082°N, 16.3738°E)
Time: 13:10:19
(UTC+01:00)

ISS - Visible Passes

Search period start: 25 February 2024 00:00
Search period end: 06 March 2024 00:00
Orbit: 415 x 422 km, 51.6° (Epoch: 25 February)

Date Brightness Start Highest point End Pass type
(mag) Time Alt. Az. Time Alt. Az. Time Alt. Az.
25 Feb -2.9 04:33:08 49° NE 04:33:08 49° NE 04:35:49 10° ENE visible
25 Feb -3.0 06:06:14 10° WNW 06:09:31 45° N 06:12:48 10° ENE visible
26 Feb -0.7 03:47:12 16° ENE 03:47:12 16° ENE 03:48:02 10° ENE visible
26 Feb -3.1 05:20:08 26° WNW 05:21:39 45° N 05:24:56 10° ENE visible
27 Feb -2.9 04:34:08 45° NNE 04:34:08 45° NNE 04:37:03 10° ENE visible
28 Feb -0.9 03:48:05 18° ENE 03:48:05 18° ENE 03:49:08 10° ENE visible
28 Feb -3.1 05:21:00 22° WNW 05:22:54 48° N 05:26:13 10° E visible
29 Feb -3.0 04:34:55 44° N 04:34:55 44° N 04:38:10 10° ENE visible
01 Mar -1.1 03:48:46 21° ENE 03:48:46 21° ENE 03:50:05 10° ENE visible
01 Mar -3.5 05:21:42 20° WNW 05:23:53 66° NNE 05:27:15 10° E visible
02 Mar -3.3 04:35:32 52° N 04:35:48 54° NNE 04:39:07 10° E visible
03 Mar -1.3 03:49:23 23° ENE 03:49:23 23° ENE 03:50:55 10° E visible
03 Mar -3.8 05:22:19 20° WNW 05:24:32 70° SSW 05:27:53 10° ESE visible
04 Mar -3.9 04:36:10 76° NW 04:36:23 85° NNE 04:39:46 10° ESE visible
05 Mar -1.4 03:50:04 23° E 03:50:04 23° E 03:51:31 10° E visible
05 Mar -2.8 05:22:59 19° W 05:24:47 32° SW 05:27:50 10° SSE visible
